Vorticity
5 6 7 6 9 12 16 17 18 18 18 17 17 16 16 16 16 16 16 16 15 15 14 14 13 13 13 13 13 13 12 12 12 12 12 11 11 11 10 10 10 10 9 9 9 8 8 8 8 8 9 9 10 11 12 12 10 8 7 10 15 19 20 18 15 13 11 8 8
2 -1 -3 -3 1 7 12 15 16 18 19 20 20 19 18 18 16 16 16 16 15 15 14 14 14 15 15 15 15 15 14 14 14 14 13 13 13 12 12 11 11 10 10 10 9 9 8 8 8 8 9 9 10 10 10 10 10 10 11 13 17 17 15 12 10 11 13 12 8
8 -0 -8 -10 -3 3 8 10 12 13 15 17 18 19 19 19 18 18 17 16 16 16 16 16 15 15 14 14 14 14 15 15 14 14 14 14 14 13 13 13 12 11 10 10 10 9 9 9 9 10 10 11 11 11 11 10 10 10 11 13 15 14 11 6 5 10 15 18 14
16 6 -6 -11 -4 1 4 4 5 6 7 9 10 12 13 14 14 15 15 14 14 14 14 14 13 13 12 12 12 12 13 14 14 15 15 15 14 14 14 13 13 12 11 11 10 10 10 10 10 10 11 12 12 12 12 11 11 10 10 11 12 12 10 7 8 12 17 20 14
19 8 -4 -8 -3 -0 1 2 4 5 6 7 8 8 8 8 9 10 10 10 11 11 11 11 11 11 11 11 11 11 12 13 14 14 15 14 14 14 13 13 13 13 12 12 11 10 10 10 10 10 11 12 12 12 12 12 11 11 11 11 12 12 13 13 14 17 18 15 10
15 5 -3 -3 0 2 3 4 4 5 6 7 8 8 8 8 8 8 8 9 9 10 10 10 10 10 10 11 11 12 12 13 13 13 13 13 13 12 12 12 12 13 12 11 10 10 10 10 10 10 10 11 11 12 12 12 12 13 13 14 15 15 15 15 16 17 17 13 7
9 3 -0 0 1 1 1 2 4 6 7 9 9 9 10 10 10 10 11 11 11 12 12 11 11 11 11 11 11 12 12 12 12 12 11 11 11 10 10 10 10 11 11 11 11 11 11 11 11 11 11 11 12 12 13 13 14 16 17 19 19 18 16 14 15 17 19 18 10
3 -0 -2 -2 -1 2 5 9 12 13 13 12 12 13 14 15 16 17 17 18 18 18 18 18 17 16 15 14 14 13 13 12 12 11 10 10 9 8 8 8 9 10 11 12 12 12 12 12 12 12 12 12 13 13 14 15 17 18 19 20 17 15 13 12 14 18 21 22 17
2 1 2 4 8 12 15 18 18 16 15 14 15 16 17 18 20 21 22 22 22 23 23 23 23 22 22 20 20 19 18 16 15 13 12 10 9 9 9 9 10 11 12 13 13 13 13 13 13 13 14 14 14 14 15 16 16 16 15 15 15 16 15 15 16 18 20 22 20
9 10 12 14 15 15 16 16 15 14 13 14 15 15 16 16 18 18 18 19 20 20 20 21 22 23 24 24 24 24 24 23 21 19 16 14 13 12 12 13 13 14 14 14 14 14 14 14 15 15 16 16 15 14 13 13 10 7 6 10 15 17 18 18 19 20 21 22 22
16 15 14 13 12 11 11 12 13 13 13 14 15 14 13 13 12 12 12 13 13 13 14 17 19 20 21 22 24 25 26 27 26 24 23 20 19 18 17 16 16 15 14 14 14 15 15 16 16 16 16 16 15 13 11 8 3 1 2 7 11 12 12 12 15 19 22 24 25
17 15 12 9 8 8 9 10 12 14 14 14 13 12 10 7 6 6 6 5 5 7 10 13 14 16 16 17 19 22 24 26 27 26 25 24 22 20 19 18 16 16 16 16 16 16 17 17 18 18 18 17 15 12 8 2 -2 -3 0 6 8 10 10 10 12 13 14 16 20
16 15 13 10 9 8 7 8 8 9 9 8 6 5 3 1 1 1 1 1 2 4 6 8 10 11 12 14 17 21 23 23 23 22 22 20 19 18 17 16 16 16 17 17 18 18 18 18 18 18 18 17 15 10 5 -2 -6 -5 -2 4 7 10 13 15 16 15 14 11 10
20 21 20 19 17 15 13 10 8 7 6 5 4 2 2 1 1 1 1 2 3 4 5 6 6 6 8 9 12 16 19 20 18 16 15 14 13 13 13 13 13 13 13 14 14 15 16 16 16 17 17 16 13 8 2 -4 -7 -6 -2 2 6 9 12 14 15 16 16 14 10
19 21 23 24 24 23 21 19 17 14 12 11 9 7 6 4 3 2 2 3 4 4 5 6 6 5 4 4 4 6 9 12 13 12 10 9 8 8 9 9 9 9 9 10 10 11 12 13 14 15 15 14 11 6 2 -3 -4 -3 -0 3 6 7 8 8 8 10 12 14 13
11 13 15 17 19 20 20 20 20 19 17 16 14 11 9 8 7 6 6 5 6 7 7 8 8 8 8 7 5 4 5 6 9 9 9 7 6 6 5 5 5 5 6 6 7 8 9 11 12 14 14 14 11 8 4 1 1 2 3 6 6 6 5 4 4 5 7 10 11
8 8 8 9 11 12 14 15 16 16 16 16 14 13 12 11 11 10 10 10 10 12 13 13 13 13 13 12 10 8 7 6 8 8 8 8 7 6 5 4 4 4 4 4 6 7 9 10 12 13 14 14 13 11 8 7 6 6 7 8 8 7 6 5 5 5 6 8 9
9 8 8 8 8 9 10 12 13 15 15 16 15 14 14 13 13 14 14 15 16 17 18 19 19 18 17 16 14 12 11 10 9 9 9 9 9 8 7 6 6 6 6 6 7 8 9 11 12 13 13 14 14 13 12 11 11 11 11 11 12 11 11 11 10 10 10 10 10
11 11 10 9 9 9 9 10 11 12 13 14 14 14 13 13 13 14 15 16 16 16 17 18 20 20 21 21 19 18 16 14 13 13 12 12 11 11 11 11 10 10 10 10 10 10 10 11 11 11 12 12 12 12 12 12 13 13 13 14 14 14 14 15 15 14 14 13 12
13 12 12 11 10 10 9 9 9 9 10 10 11 11 11 11 11 11 12 12 12 12 12 13 16 18 21 22 22 21 20 19 18 17 16 15 14 14 14 13 13 13 13 13 13 13 13 13 13 12 12 12 12 12 13 13 14 14 15 15 15 15 14 14 14 13 13 12 12
13 13 13 12 12 11 11 10 10 9 9 9 10 10 11 11 12 12 12 12 12 12 12 12 13 14 16 17 18 19 19 19 18 17 15 14 14 13 13 12 13 13 13 14 15 15 16 15 15 15 15 15 15 16 16 17 17 18 18 18 17 16 16 15 14 14 13 13 12
13 13 13 14 14 13 13 13 13 13 13 13 13 14 14 15 15 15 15 15 15 14 14 13 12 12 12 12 13 13 13 13 14 13 13 13 13 12 12 13 13 14 14 14 14 14 14 14 15 15 16 17 17 18 19 19 20 20 20 20 20 20 19 19 18 18 17 17 16
12 13 14 14 14 14 15 15 15 15 15 15 15 16 16 16 16 16 16 16 15 15 14 13 13 12 12 12 12 12 12 12 12 13 13 13 13 13 14 14 14 14 14 13 13 13 13 13 13 13 14 15 15 16 16 17 18 18 18 18 17 17 17 17 18 18 18 18 19
13 13 13 14 14 14 14 14 14 14 14 14 14 14 14 14 14 14 14 14 14 13 13 13 13 13 13 13 13 13 13 12 13 13 13 13 13 13 14 14 14 14 14 14 14 14 14 14 14 14 14 14 13 13 14 14 14 14 14 14 14 13 12 12 13 14 15 16 18
12 13 13 13 13 13 13 12 12 12 12 12 12 12 12 12 12 12 12 12 12 11 11 11 11 11 10 10 11 11 11 11 11 11 11 12 12 12 12 12 12 12 13 13 13 13 13 13 13 13 13 13 13 13 13 12 12 13 13 13 13 12 12 12 11 12 12 13 13
12 12 11 11 11 11 11 10 10 10 10 10 10 10 10 10 10 10 10 10 10 10 9 9 9 9 8 8 9 8 8 8 8 9 9 9 10 10 10 10 10 10 11 11 11 11 11 11 11 11 11 12 11 11 11 11 11 11 11 11 11 11 12 12 12 11 11 11 11
11 10 10 10 10 10 10 9 9 9 9 9 9 9 9 9 9 9 9 9 9 9 8 8 8 8 8 8 8 8 8 8 8 8 8 8 8 9 9 9 9 9 10 10 10 10 10 10 10 10 10 10 10 10 10 10 10 10 10 10 10 10 10 11 11 11 11 11 10
10 9 9 9 9 9 9 9 8 8 8 8 8 8 8 8 8 8 8 8 8 8 8 8 8 8 8 8 8 8 8 9 8 8 8 9 9 9 9 9 9 9 9 9 9 9 9 9 9 10 10 10 10 10 10 10 10 10 10 10 10 10 11 11 11 11 11 11 11
9 9 9 8 8 8 8 8 8 8 8 8 8 8 8 8 8 8 8 8 8 8 8 8 8 8 8 8 9 9 9 9 9 9 9 9 10 10 10 10 10 10 9 9 9 9 9 10 10 10 10 10 10 10 10 10 10 10 10 11 11 11 11 11 11 12 12 12 12
8 8 8 8 8 8 8 8 8 8 8 8 8 8 8 8 8 8 8 8 8 8 8 8 8 8 9 9 9 9 9 9 9 9 10 10 10 10 10 10 10 10 9 9 9 9 9 10 10 10 10 10 10 11 11 11 11 11 11 11 11 11 11 11 11 11 11 11 12
8 8 8 8 8 8 8 8 8 8 8 8 8 8 8 8 8 8 8 8 8 8 8 8 8 9 9 9 9 9 8 8 8 9 9 9 9 9 9 10 9 9 9 9 9 9 9 9 10 10 10 10 10 10 10 10 10 10 10 10 10 10 10 10 10 10 10 10 11
8 7 7 7 7 7 8 8 8 8 8 8 8 8 8 8 8 8 8 8 8 8 8 8 8 8 8 8 8 8 8 8 8 8 8 8 8 8 8 9 8 8 8 9 9 9 9 9 9 9 9 9 9 9 9 9 9 10 10 10 9 9 9 9 9 9 9 9 9
7 7 7 7 7 8 8 8 8 8 8 8 8 8 8 8 8 8 8 8 8 8 8 7 7 7 7 7 7 7 7 7 7 7 7 7 7 7 8 8 8 8 8 9 9 9 9 8 8 8 8 8 8 9 9 9 9 9 9 9 9 9 9 9 9 9 9 8 8
7 7 7 7 7 8 8 8 8 8 8 8 8 8 8 8 8 8 8 8 8 8 7 7 7 7 7 6 6 6 7 7 7 7 7 7 7 8 8 8 8 8 8 9 9 9 9 8 8 8 8 8 9 9 9 9 9 9 9 9 9 9 10 10 10 10 10 10 10
7 7 7 7 7 8 8 8 8 8 8 8 8 8 7 7 7 7 7 7 7 7 7 7 7 7 6 7 6 6 6 7 7 7 7 7 8 8 8 8 8 9 9 10 10 10 10 9 9 10 10 10 10 10 10 10 10 10 10 11 11 11 12 12 12 12 12 13 13
7 7 7 7 8 8 8 8 8 8 8 8 8 7 7 7 7 7 7 7 6 6 7 7 7 7 7 7 7 7 7 7 8 8 8 9 9 9 9 9 10 11 12 12 12 12 12 12 12 12 12 12 12 12 12 12 12 12 12 12 12 13 13 13 13 13 13 13 13
7 7 8 8 8 8 8 8 8 8 8 8 7 7 7 7 7 7 6 6 6 6 6 7 7 7 7 7 8 8 8 8 9 10 10 10 11 11 11 11 12 12 13 13 12 12 12 12 12 12 12 12 12 12 12 12 12 12 12 12 12 11 11 11 11 11 11 11 11
8 8 8 8 8 8 8 8 7 7 7 7 7 6 6 6 6 6 6 6 6 6 7 7 7 8 8 8 9 9 10 10 11 11 12 12 12 12 12 12 12 12 12 11 11 11 11 11 11 11 11 11 11 10 10 10 10 10 10 10 10 10 10 10 10 10 10 10 10
8 8 8 8 8 8 8 7 7 7 7 6 6 6 6 6 6 6 6 7 6 7 7 8 8 9 9 10 10 10 11 12 12 12 12 12 12 11 11 11 10 10 10 9 9 9 9 9 9 9 10 10 10 9 9 9 9 9 9 9 9 9 9 9 10 10 10 10 10
8 8 8 8 8 8 7 7 7 7 6 6 6 6 6 6 6 6 7 7 7 8 8 9 9 10 10 11 11 11 12 12 12 11 11 10 10 10 9 9 9 8 8 8 8 8 8 8 8 9 9 9 9 9 9 9 9 9 9 9 9 9 9 10 10 10 10 10 11
8 8 8 8 8 7 7 7 6 6 6 6 6 6 6 6 6 7 7 7 8 8 9 10 10 11 11 11 11 11 11 11 10 10 9 9 8 8 8 8 8 7 7 7 8 8 8 8 8 8 9 9 9 9 9 9 9 9 9 10 10 10 10 10 11 11 11 11 11
Height
3024 3025 3026 3026 3027 3027 3028 3028 3029 3029 3029 3030 3030 3030 3031 3031 3032 3032 3033 3033 3034 3034 3034 3034 3035 3035 3036 3036 3037 3037 3038 3038 3039 3039 3039 3040 3040 3040 3041 3041 3041 3041 3041 3042 3042 3042 3043 3043 3043 3044 3044 3044 3044 3045 3045 3046 3046 3046 3046 3047 3047 3047 3048 3049 3049 3050 3051 3052 3053
3024 3025 3026 3026 3026 3027 3027 3027 3028 3028 3029 3029 3029 3029 3030 3030 3030 3031 3031 3031 3032 3032 3032 3033 3033 3034 3034 3034 3035 3035 3036 3036 3037 3037 3037 3038 3038 3038 3039 3039 3039 3039 3039 3039 3040 3040 3040 3040 3041 3041 3041 3042 3042 3043 3043 3043 3044 3044 3044 3044 3044 3045 3046 3046 3046 3047 3049 3049 3050
3024 3025 3025 3025 3025 3026 3026 3026 3027 3027 3028 3028 3028 3029 3029 3029 3029 3029 3030 3030 3030 3030 3031 3031 3031 3032 3032 3032 3033 3033 3034 3034 3034 3035 3035 3035 3036 3036 3036 3036 3037 3037 3037 3037 3038 3038 3038 3038 3039 3039 3039 3039 3040 3040 3040 3041 3041 3042 3042 3042 3042 3043 3044 3044 3044 3044 3045 3046 3047
3024 3024 3025 3025 3025 3025 3025 3026 3026 3026 3027 3027 3027 3027 3028 3028 3028 3028 3029 3029 3029 3029 3029 3029 3029 3030 3030 3030 3031 3031 3031 3032 3032 3033 3033 3033 3033 3034 3034 3034 3034 3035 3035 3035 3035 3035 3036 3036 3036 3037 3037 3037 3038 3038 3038 3039 3039 3039 3039 3039 3040 3040 3041 3041 3041 3042 3043 3044 3044
3023 3024 3024 3025 3025 3025 3025 3025 3026 3026 3026 3026 3026 3026 3026 3026 3027 3027 3027 3027 3027 3027 3028 3028 3028 3028 3028 3028 3029 3029 3029 3029 3030 3030 3030 3031 3031 3031 3031 3032 3032 3032 3033 3033 3033 3034 3034 3034 3034 3034 3035 3035 3035 3036 3036 3036 3037 3037 3037 3037 3038 3038 3038 3039 3039 3040 3040 3041 3042
3023 3023 3024 3024 3025 3025 3025 3025 3025 3025 3025 3025 3025 3025 3025 3025 3025 3026 3026 3026 3026 3026 3026 3026 3026 3026 3026 3026 3026 3027 3027 3027 3028 3028 3028 3029 3029 3029 3029 3029 3030 3030 3030 3031 3031 3032 3032 3032 3032 3032 3033 3033 3033 3034 3034 3034 3034 3034 3034 3035 3035 3035 3036 3036 3037 3038 3039 3039 3039
3022 3023 3024 3024 3024 3024 3024 3024 3024 3024 3024 3024 3024 3024 3024 3024 3024 3024 3024 3024 3024 3024 3024 3024 3024 3024 3024 3024 3024 3025 3025 3025 3025 3026 3026 3026 3027 3027 3027 3028 3028 3028 3029 3029 3029 3029 3030 3030 3030 3030 3031 3031 3031 3031 3032 3032 3032 3032 3032 3033 3033 3034 3034 3034 3034 3035 3036 3037 3037
3022 3022 3023 3023 3023 3023 3023 3023 3023 3023 3023 3023 3023 3023 3023 3023 3023 3023 3023 3023 3023 3023 3022 3022 3022 3022 3022 3022 3022 3023 3023 3023 3024 3024 3024 3024 3025 3025 3026 3026 3026 3026 3027 3027 3027 3028 3028 3028 3029 3029 3029 3029 3029 3029 3030 3030 3030 3030 3030 3031 3031 3031 3032 3032 3032 3033 3034 3034 3034
3021 3022 3022 3022 3022 3022 3023 3022 3022 3022 3022 3022 3022 3022 3022 3022 3022 3022 3022 3022 3021 3021 3021 3021 3021 3020 3020 3020 3020 3021 3021 3021 3021 3022 3022 3023 3023 3024 3024 3024 3025 3025 3025 3025 3025 3026 3026 3026 3026 3027 3027 3027 3027 3028 3028 3029 3029 3029 3029 3029 3030 3030 3030 3030 3030 3030 3030 3031 3031
3021 3021 3022 3022 3022 3022 3022 3022 3022 3022 3022 3022 3022 3021 3021 3021 3021 3021 3021 3021 3020 3020 3020 3019 3019 3019 3019 3019 3019 3019 3019 3019 3019 3020 3020 3021 3022 3022 3023 3023 3023 3023 3024 3024 3024 3024 3024 3024 3024 3025 3025 3025 3025 3026 3026 3027 3027 3027 3028 3028 3028 3028 3028 3028 3028 3028 3028 3028 3029
3021 3021 3021 3021 3021 3021 3021 3021 3021 3021 3021 3021 3021 3021 3021 3020 3020 3020 3020 3020 3020 3019 3019 3019 3019 3018 3018 3018 3018 3018 3018 3018 3018 3019 3019 3019 3020 3021 3021 3021 3022 3022 3022 3022 3022 3022 3022 3023 3023 3023 3023 3024 3024 3024 3025 3025 3025 3026 3026 3026 3026 3026 3026 3026 3026 3026 3026 3026 3026
3020 3020 3020 3020 3020 3020 3021 3021 3021 3021 3021 3020 3020 3020 3020 3020 3020 3019 3019 3019 3019 3019 3019 3018 3018 3018 3017 3017 3017 3017 3016 3016 3017 3017 3018 3018 3019 3019 3019 3020 3020 3020 3020 3020 3020 3020 3021 3021 3021 3021 3021 3022 3022 3023 3023 3024 3024 3024 3024 3024 3024 3024 3024 3024 3024 3024 3024 3024 3024
3019 3019 3019 3019 3019 3020 3020 3020 3020 3020 3020 3020 3020 3019 3019 3019 3019 3019 3019 3018 3018 3018 3018 3017 3017 3017 3017 3016 3016 3016 3016 3016 3016 3016 3016 3017 3017 3018 3018 3018 3018 3018 3019 3019 3019 3019 3019 3019 3019 3019 3019 3020 3021 3021 3021 3022 3022 3022 3022 3022 3022 3022 3021 3021 3021 3021 3021 3021 3021
3019 3019 3019 3019 3019 3019 3019 3019 3019 3019 3019 3019 3019 3019 3019 3019 3018 3018 3018 3018 3017 3017 3016 3016 3016 3016 3016 3015 3015 3015 3015 3015 3015 3015 3015 3015 3016 3016 3016 3016 3017 3017 3017 3017 3017 3017 3017 3017 3017 3018 3018 3019 3019 3019 3020 3019 3019 3019 3019 3019 3019 3019 3019 3019 3019 3019 3019 3018 3018
3019 3019 3019 3018 3018 3018 3018 3018 3018 3018 3018 3018 3018 3018 3018 3017 3017 3017 3017 3017 3016 3016 3015 3015 3015 3014 3014 3014 3014 3014 3014 3014 3014 3014 3014 3014 3014 3014 3014 3015 3015 3015 3015 3015 3016 3016 3016 3016 3016 3016 3016 3017 3017 3018 3018 3018 3018 3017 3017 3017 3017 3017 3017 3017 3017 3016 3016 3016 3015
3019 3018 3018 3018 3018 3018 3017 3017 3017 3017 3017 3017 3017 3017 3017 3016 3016 3016 3016 3015 3015 3015 3014 3014 3014 3013 3013 3013 3013 3013 3013 3013 3013 3013 3013 3013 3013 3013 3014 3014 3014 3014 3014 3014 3014 3014 3014 3014 3014 3015 3015 3015 3015 3016 3016 3016 3015 3015 3015 3015 3015 3015 3015 3014 3014 3014 3014 3013 3013
3018 3018 3018 3017 3017 3017 3016 3016 3016 3016 3016 3016 3016 3016 3015 3015 3015 3015 3015 3014 3014 3014 3014 3013 3013 3012 3012 3012 3012 3012 3012 3012 3011 3012 3012 3012 3012 3012 3012 3013 3013 3013 3013 3013 3013 3013 3013 3013 3013 3013 3013 3014 3014 3014 3014 3014 3013 3013 3013 3013 3013 3013 3012 3012 3012 3011 3011 3011 3010
3018 3018 3017 3017 3017 3016 3016 3015 3015 3015 3015 3015 3015 3015 3014 3014 3014 3014 3014 3014 3013 3013 3013 3012 3012 3012 3011 3011 3011 3011 3011 3011 3010 3010 3011 3011 3011 3011 3011 3011 3011 3011 3011 3012 3012 3012 3011 3011 3011 3011 3011 3011 3011 3011 3011 3011 3011 3011 3011 3010 3010 3010 3010 3009 3009 3009 3008 3008 3008
3018 3018 3017 3017 3016 3016 3016 3015 3015 3015 3014 3014 3014 3014 3014 3014 3014 3013 3013 3013 3013 3012 3012 3012 3011 3011 3010 3010 3010 3010 3010 3010 3010 3010 3010 3010 3010 3010 3010 3010 3010 3010 3010 3010 3010 3010 3010 3010 3010 3009 3009 3009 3009 3009 3009 3009 3009 3009 3009 3008 3008 3008 3007 3007 3007 3006 3006 3005 3005
3018 3018 3017 3017 3016 3016 3016 3015 3015 3015 3015 3014 3014 3014 3014 3014 3014 3014 3013 3013 3013 3012 3012 3011 3011 3011 3010 3010 3009 3009 3009 3009 3009 3009 3009 3009 3009 3009 3009 3009 3009 3009 3009 3009 3009 3008 3008 3008 3008 3008 3008 3008 3008 3008 3007 3007 3007 3007 3006 3006 3006 3005 3005 3004 3004 3004 3003 3003 3002
3018 3018 3017 3017 3016 3016 3016 3015 3015 3015 3015 3015 3015 3014 3014 3014 3014 3014 3014 3013 3013 3012 3012 3012 3011 3011 3010 3010 3009 3009 3009 3009 3009 3008 3008 3008 3008 3008 3008 3008 3008 3007 3007 3007 3007 3007 3007 3007 3007 3007 3007 3006 3006 3006 3006 3006 3005 3005 3005 3004 3004 3003 3003 3002 3002 3001 3001 3000 3000
3018 3018 3017 3017 3017 3016 3016 3016 3015 3015 3015 3015 3015 3014 3014 3014 3014 3014 3013 3013 3013 3012 3012 3011 3011 3011 3010 3010 3009 3009 3009 3008 3008 3008 3008 3007 3007 3007 3007 3007 3007 3007 3007 3007 3007 3007 3007 3006 3006 3006 3006 3006 3005 3005 3005 3004 3004 3004 3003 3003 3002 3002 3001 3000 3000 2999 2999 2998 2998
3018 3018 3017 3017 3017 3016 3016 3016 3015 3015 3015 3015 3014 3014 3014 3014 3014 3013 3013 3013 3012 3012 3011 3011 3011 3010 3010 3009 3009 3009 3008 3008 3007 3007 3007 3007 3007 3007 3007 3007 3007 3007 3007 3006 3006 3006 3006 3006 3006 3005 3005 3005 3004 3004 3004 3003 3003 3002 3001 3001 3000 3000 2999 2999 2998 2998 2997 2996 2996
3018 3018 3017 3017 3017 3016 3016 3016 3015 3015 3015 3015 3014 3014 3014 3014 3013 3013 3013 3012 3012 3011 3011 3010 3010 3010 3009 3009 3009 3008 3008 3008 3007 3007 3007 3007 3007 3007 3007 3007 3007 3007 3006 3006 3006 3006 3005 3005 3005 3004 3004 3004 3003 3003 3002 3002 3001 3000 3000 2999 2999 2998 2997 2997 2996 2995 2995 2994 2994
3018 3018 3017 3017 3017 3016 3016 3015 3015 3015 3014 3014 3014 3014 3014 3013 3013 3013 3012 3012 3011 3011 3010 3010 3009 3009 3009 3009 3008 3008 3008 3007 3007 3007 3007 3006 3006 3006 3006 3006 3006 3006 3006 3005 3005 3005 3004 3004 3004 3003 3003 3002 3002 3001 3000 3000 2999 2999 2998 2997 2996 2995 2995 2994 2993 2993 2992 2992 2991
3018 3018 3017 3017 3016 3016 3015 3015 3015 3014 3014 3014 3014 3013 3013 3013 3012 3012 3012 3011 3011 3010 3010 3009 3009 3009 3009 3008 3008 3008 3007 3007 3007 3007 3006 3006 3006 3005 3005 3005 3005 3005 3004 3004 3004 3004 3003 3003 3002 3002 3001 3000 3000 2999 2999 2998 2997 2996 2996 2995 2994 2994 2993 2992 2991 2990 2990 2989 2989
3018 3017 3017 3016 3016 3015 3015 3015 3014 3014 3014 3014 3013 3013 3013 3013 3012 3012 3011 3011 3011 3010 3010 3009 3009 3009 3009 3008 3008 3007 3007 3007 3007 3006 3006 3006 3005 3005 3005 3004 3004 3004 3004 3003 3003 3002 3002 3002 3001 3000 2999 2999 2998 2998 2997 2996 2995 2995 2994 2994 2993 2992 2991 2990 2989 2989 2988 2987 2986
3017 3017 3016 3016 3016 3015 3015 3015 3014 3014 3014 3014 3014 3013 3013 3013 3012 3012 3011 3011 3011 3010 3010 3009 3009 3009 3009 3009 3008 3008 3008 3007 3007 3007 3006 3006 3006 3005 3005 3004 3004 3004 3003 3003 3002 3002 3001 3001 3000 2999 2999 2998 2997 2996 2996 2995 2994 2994 2993 2992 2991 2991 2990 2989 2988 2988 2986 2985 2984
3017 3017 3016 3016 3016 3015 3015 3015 3015 3014 3014 3014 3014 3014 3013 3013 3013 3012 3012 3011 3011 3010 3010 3010 3009 3009 3009 3009 3008 3008 3008 3008 3007 3007 3006 3006 3006 3005 3005 3004 3004 3003 3003 3002 3002 3001 3000 3000 2999 2999 2998 2997 2996 2995 2995 2994 2993 2993 2992 2991 2990 2989 2989 2988 2987 2986 2985 2984 2983
3017 3017 3017 3016 3016 3016 3015 3015 3015 3015 3014 3014 3014 3014 3014 3013 3013 3012 3012 3011 3011 3010 3010 3010 3009 3009 3009 3009 3008 3008 3008 3007 3007 3006 3006 3006 3005 3005 3004 3004 3003 3003 3002 3002 3001 3000 2999 2999 2999 2998 2997 2996 2995 2994 2994 2993 2992 2991 2991 2990 2989 2988 2987 2986 2985 2984 2984 2983 2981
3017 3017 3017 3016 3016 3016 3016 3015 3015 3015 3014 3014 3014 3014 3013 3013 3013 3012 3012 3011 3011 3010 3010 3009 3009 3009 3009 3008 3008 3008 3007 3007 3006 3006 3005 3005 3004 3004 3004 3003 3002 3002 3001 3001 3000 2999 2998 2998 2997 2997 2996 2995 2994 2994 2993 2992 2991 2990 2989 2989 2988 2987 2986 2985 2984 2983 2982 2981 2980
3017 3017 3016 3016 3016 3016 3015 3015 3015 3014 3014 3014 3014 3014 3013 3013 3012 3012 3012 3011 3011 3010 3010 3009 3009 3009 3008 3008 3007 3007 3006 3006 3005 3005 3004 3004 3004 3003 3003 3002 3002 3001 3001 3000 2999 2999 2998 2997 2996 2996 2995 2994 2994 2993 2992 2991 2990 2989 2988 2987 2986 2986 2985 2984 2983 2982 2981 2980 2979
3017 3016 3016 3016 3016 3015 3015 3015 3014 3014 3014 3014 3014 3013 3013 3013 3012 3012 3011 3011 3010 3010 3009 3009 3009 3008 3008 3007 3007 3006 3006 3005 3005 3004 3004 3004 3003 3003 3002 3002 3001 3001 3000 3000 2999 2999 2998 2997 2996 2995 2995 2994 2993 2992 2991 2990 2989 2988 2988 2987 2986 2985 2984 2983 2982 2981 2980 2979 2978
3016 3016 3016 3016 3015 3015 3015 3015 3014 3014 3014 3014 3014 3013 3013 3012 3012 3011 3011 3010 3010 3009 3009 3009 3008 3008 3007 3007 3006 3006 3005 3005 3004 3004 3004 3003 3003 3002 3002 3002 3001 3001 3000 3000 3000 2999 2998 2997 2996 2995 2995 2994 2993 2992 2991 2990 2989 2988 2987 2986 2985 2984 2983 2982 2981 2980 2979 2978 2977
3016 3016 3016 3016 3015 3015 3015 3015 3014 3014 3014 3014 3014 3013 3013 3012 3012 3011 3011 3010 3010 3009 3009 3008 3008 3007 3007 3007 3006 3006 3005 3005 3004 3004 3004 3003 3003 3003 3002 3002 3001 3000 3000 2999 2999 2999 2998 2997 2996 2995 2994 2993 2992 2991 2990 2989 2989 2987 2986 2985 2984 2984 2982 2981 2980 2979 2978 2977 2976
3017 3016 3016 3016 3016 3015 3015 3015 3015 3014 3014 3014 3013 3013 3012 3012 3011 3011 3010 3010 3010 3009 3009 3008 3008 3007 3007 3007 3006 3006 3005 3005 3005 3004 3004 3004 3003 3003 3002 3001 3001 3000 2999 2999 2998 2998 2997 2996 2995 2994 2993 2992 2991 2990 2989 2988 2987 2986 2985 2984 2983 2982 2981 2980 2979 2977 2976 2975 2974
3017 3017 3016 3016 3016 3016 3015 3015 3015 3014 3014 3014 3013 3013 3012 3012 3011 3011 3010 3010 3010 3009 3009 3008 3008 3008 3007 3007 3007 3006 3006 3005 3005 3004 3004 3004 3003 3002 3002 3001 3000 2999 2999 2998 2997 2996 2996 2995 2994 2993 2992 2991 2990 2989 2988 2987 2985 2984 2983 2982 2981 2980 2979 2977 2976 2975 2973 2972 2971
3017 3017 3017 3016 3016 3016 3015 3015 3015 3014 3014 3014 3013 3013 3012 3012 3011 3011 3010 3010 3010 3009 3009 3009 3008 3008 3008 3007 3007 3006 3006 3005 3005 3004 3004 3003 3003 3002 3001 3000 2999 2998 2997 2996 2996 2995 2994 2993 2992 2991 2990 2989 2988 2987 2986 2984 2983 2982 2981 2980 2979 2977 2976 2975 2974 2972 2971 2969 2968
3017 3017 3017 3017 3016 3016 3015 3015 3015 3014 3014 3013 3013 3012 3012 3012 3011 3011 3010 3010 3010 3009 3009 3009 3008 3008 3008 3007 3007 3007 3006 3005 3005 3004 3004 3003 3002 3001 3000 2999 2998 2997 2996 2994 2994 2993 2992 2991 2990 2989 2988 2987 2986 2985 2984 2982 2981 2980 2979 2978 2976 2975 2974 2973 2971 2970 2969 2967 2966
3018 3017 3017 3017 3016 3016 3015 3015 3014 3014 3014 3013 3013 3012 3012 3011 3011 3011 3010 3010 3010 3009 3009 3009 3009 3008 3008 3008 3007 3006 3006 3005 3004 3004 3003 3001 3000 2999 2998 2997 2996 2994 2994 2993 2992 2991 2990 2989 2988 2987 2986 2985 2984 2983 2982 2980 2979 2978 2977 2976 2975 2974 2972 2971 2970 2969 2967 2965 2964
3018 3017 3017 3017 3016 3016 3015 3015 3014 3014 3014 3013 3013 3012 3012 3011 3011 3011 3010 3010 3010 3010 3009 3009 3009 3008 3008 3007 3006 3006 3005 3004 3003 3002 3001 3000 2999 2997 2996 2995 2994 2993 2991 2991 2990 2989 2988 2987 2986 2985 2984 2983 2982 2981 2980 2979 2978 2977 2975 2974 2974 2973 2971 2970 2969 2967 2966 2964 2963